Time,TemperatureF,DewpointF,PressureIn,WindDirection,WindDirectionDegrees,WindSpeedMPH,WindSpeedGustMPH,Humidity,HourlyPrecipIn,Conditions,Clouds,dailyrainin,SoftwareType,DateUTC
2013-06-09 00:00:00,62.7,61.8,29.94,SE,126,0.0,1.0,97,0.00,,,0.00,VWS V14.01,2013-06-09 04:00:00,
2013-06-09 00:01:00,62.7,61.8,29.94,SE,126,0.0,1.0,97,0.00,,,0.01,VWS V14.01,2013-06-09 04:01:00,
2013-06-09 00:06:00,62.8,61.9,29.93,SE,126,0.0,0.0,97,0.00,,,0.00,VWS V14.01,2013-06-09 04:06:00,
2013-06-09 00:11:00,62.8,61.9,29.93,SE,126,0.0,0.0,97,0.00,,,0.00,VWS V14.01,2013-06-09 04:11:00,
2013-06-09 00:16:00,62.8,61.9,29.93,SE,126,0.0,0.0,97,0.00,,,0.00,VWS V14.01,2013-06-09 04:16:00,
2013-06-09 00:21:00,62.8,61.9,29.94,SE,126,0.0,0.0,97,0.00,,,0.00,VWS V14.01,2013-06-09 04:21:00,
2013-06-09 00:26:00,62.7,61.8,29.94,SE,126,0.0,0.0,97,0.00,,,0.00,VWS V14.01,2013-06-09 04:26:00,
2013-06-09 00:30:00,62.6,61.7,29.94,SE,126,0.0,0.0,97,0.00,,,0.00,VWS V14.01,2013-06-09 04:30:00,
2013-06-09 00:31:00,62.6,61.7,29.94,SE,126,0.0,0.0,97,0.00,,,0.00,VWS V14.01,2013-06-09 04:31:00,
2013-06-09 00:36:00,62.6,61.7,29.94,SE,126,0.0,0.0,97,0.00,,,0.00,VWS V14.01,2013-06-09 04:36:00,
2013-06-09 00:41:00,62.5,61.6,29.94,SE,126,0.0,0.0,97,0.00,,,0.00,VWS V14.01,2013-06-09 04:41:00,
2013-06-09 00:46:00,62.4,61.2,29.94,SE,126,0.0,0.0,96,0.00,,,0.00,VWS V14.01,2013-06-09 04:46:00,
2013-06-09 00:51:00,62.3,61.4,29.94,SE,126,0.0,0.0,97,0.00,,,0.00,VWS V14.01,2013-06-09 04:51:00,
2013-06-09 00:57:00,62.2,61.0,29.94,SE,126,0.0,0.0,96,0.00,,,0.00,VWS V14.01,2013-06-09 04:57:00,
2013-06-09 01:00:00,62.0,61.1,29.95,SE,126,0.0,0.0,97,0.00,,,0.00,VWS V14.01,2013-06-09 05:00:00,
2013-06-09 01:02:00,62.0,61.1,29.95,SE,126,0.0,0.0,97,0.00,,,0.00,VWS V14.01,2013-06-09 05:02:00,
2013-06-09 01:07:00,62.0,61.1,29.95,SE,126,0.0,0.0,97,0.00,,,0.00,VWS V14.01,2013-06-09 05:07:00,
2013-06-09 01:12:00,62.1,61.2,29.95,SE,126,0.0,0.0,97,0.00,,,0.00,VWS V14.01,2013-06-09 05:12:00,
2013-06-09 01:17:00,62.1,61.2,29.95,SE,126,0.0,0.0,97,0.00,,,0.00,VWS V14.01,2013-06-09 05:17:00,
2013-06-09 01:22:00,62.0,61.1,29.95,SE,126,0.0,0.0,97,0.00,,,0.00,VWS V14.01,2013-06-09 05:22:00,
2013-06-09 01:27:00,62.0,61.1,29.95,SE,126,0.0,0.0,97,0.00,,,0.00,VWS V14.01,2013-06-09 05:27:00,
2013-06-09 01:30:00,62.1,61.2,29.96,SE,126,0.0,0.0,97,0.00,,,0.00,VWS V14.01,2013-06-09 05:30:00,
2013-06-09 01:32:00,62.0,61.1,29.96,SE,126,0.0,0.0,97,0.00,,,0.00,VWS V14.01,2013-06-09 05:32:00,
2013-06-09 01:37:00,62.1,61.2,29.96,SE,126,0.0,0.0,97,0.00,,,0.00,VWS V14.01,2013-06-09 05:37:00,
2013-06-09 01:42:00,62.1,61.2,29.96,West,273,0.0,1.0,97,0.00,,,0.00,VWS V14.01,2013-06-09 05:42:00,
2013-06-09 01:47:00,62.1,61.2,29.96,West,273,0.0,1.0,97,0.00,,,0.00,VWS V14.01,2013-06-09 05:47:00,
2013-06-09 01:52:00,62.0,61.1,29.96,NNW,337,0.0,3.0,97,0.00,,,0.00,VWS V14.01,2013-06-09 05:52:00,
2013-06-09 01:57:00,62.0,61.1,29.96,WNW,298,1.0,4.0,97,0.00,,,0.00,VWS V14.01,2013-06-09 05:57:00,
2013-06-09 02:00:00,62.0,60.8,29.96,WNW,298,1.0,4.0,96,0.00,,,0.00,VWS V14.01,2013-06-09 06:00:00,
2013-06-09 02:02:00,62.0,60.8,29.96,WNW,298,2.0,4.0,96,0.00,,,0.00,VWS V14.01,2013-06-09 06:02:00,
2013-06-09 02:07:00,62.1,61.0,29.96,NW,318,0.0,4.0,96,0.00,,,0.00,VWS V14.01,2013-06-09 06:07:00,
2013-06-09 02:12:00,62.1,60.7,29.96,NW,318,0.0,4.0,95,0.00,,,0.00,VWS V14.01,2013-06-09 06:12:00,
2013-06-09 02:17:00,62.2,60.8,29.96,NW,318,0.0,4.0,95,0.00,,,0.00,VWS V14.01,2013-06-09 06:17:00,
2013-06-09 02:22:00,62.3,60.6,29.97,NW,318,0.0,4.0,94,0.00,,,0.00,VWS V14.01,2013-06-09 06:22:00,
2013-06-09 02:27:00,62.3,60.2,29.97,NW,318,1.0,4.0,93,0.00,,,0.00,VWS V14.01,2013-06-09 06:27:00,
2013-06-09 02:30:00,62.3,60.3,29.96,NW,318,1.0,4.0,93,0.00,,,0.00,VWS V14.01,2013-06-09 06:30:00,
2013-06-09 02:32:00,62.3,60.2,29.96,NW,318,0.0,4.0,93,0.00,,,0.00,VWS V14.01,2013-06-09 06:32:00,
2013-06-09 02:37:00,62.2,60.2,29.96,North,351,3.0,3.0,93,0.00,,,0.00,VWS V14.01,2013-06-09 06:37:00,
2013-06-09 02:42:00,62.1,60.1,29.96,North,350,0.0,3.0,93,0.00,,,0.00,VWS V14.01,2013-06-09 06:42:00,
2013-06-09 02:47:00,62.0,60.0,29.96,North,350,0.0,3.0,93,0.00,,,0.00,VWS V14.01,2013-06-09 06:47:00,
2013-06-09 02:52:00,61.7,59.7,29.96,North,350,0.0,3.0,93,0.00,,,0.00,VWS V14.01,2013-06-09 06:52:00,
2013-06-09 02:57:00,61.6,59.6,29.97,North,350,1.0,3.0,93,0.00,,,0.00,VWS V14.01,2013-06-09 06:57:00,
2013-06-09 03:00:00,61.6,59.6,29.97,North,350,0.0,3.0,93,0.00,,,0.00,VWS V14.01,2013-06-09 07:00:00,
2013-06-09 03:02:00,61.6,59.6,29.97,North,350,0.0,3.0,93,0.00,,,0.00,VWS V14.01,2013-06-09 07:02:00,
2013-06-09 03:07:00,61.5,59.5,29.97,North,350,0.0,0.0,93,0.00,,,0.00,VWS V14.01,2013-06-09 07:07:00,
2013-06-09 03:12:00,61.4,59.4,29.97,North,350,0.0,1.0,93,0.00,,,0.00,VWS V14.01,2013-06-09 07:12:00,
2013-06-09 03:17:00,61.4,59.4,29.97,North,350,0.0,1.0,93,0.00,,,0.00,VWS V14.01,2013-06-09 07:17:00,
2013-06-09 03:22:00,61.2,59.2,29.97,North,350,0.0,1.0,93,0.00,,,0.00,VWS V14.01,2013-06-09 07:22:00,
2013-06-09 03:27:00,61.1,59.1,29.96,North,350,0.0,1.0,93,0.00,,,0.00,VWS V14.01,2013-06-09 07:27:00,
2013-06-09 03:30:00,60.9,58.9,29.97,North,350,0.0,1.0,93,0.00,,,0.00,VWS V14.01,2013-06-09 07:30:00,
2013-06-09 03:32:00,60.9,58.9,29.97,North,350,0.0,1.0,93,0.00,,,0.00,VWS V14.01,2013-06-09 07:32:00,
2013-06-09 03:37:00,60.7,58.7,29.97,North,350,0.0,0.0,93,0.00,,,0.00,VWS V14.01,2013-06-09 07:37:00,
2013-06-09 03:42:00,60.4,58.4,29.97,North,350,0.0,0.0,93,0.00,,,0.00,VWS V14.01,2013-06-09 07:42:00,
2013-06-09 03:47:00,60.3,58.6,29.98,North,350,0.0,0.0,94,0.00,,,0.00,VWS V14.01,2013-06-09 07:47:00,
2013-06-09 03:52:00,60.1,58.4,29.98,North,350,0.0,0.0,94,0.00,,,0.00,VWS V14.01,2013-06-09 07:52:00,
2013-06-09 03:57:00,59.9,58.2,29.98,North,350,0.0,0.0,94,0.00,,,0.00,VWS V14.01,2013-06-09 07:57:00,
2013-06-09 04:00:00,59.8,58.4,29.98,North,350,0.0,0.0,95,0.00,,,0.00,VWS V14.01,2013-06-09 08:00:00,
2013-06-09 04:02:00,59.8,58.1,29.98,North,350,0.0,0.0,94,0.00,,,0.00,VWS V14.01,2013-06-09 08:02:00,
2013-06-09 04:07:00,59.8,58.4,29.98,North,350,0.0,0.0,95,0.00,,,0.00,VWS V14.01,2013-06-09 08:07:00,
2013-06-09 04:12:00,59.7,58.3,29.98,North,350,0.0,0.0,95,0.00,,,0.00,VWS V14.01,2013-06-09 08:12:00,
2013-06-09 04:17:00,59.6,58.2,29.99,North,350,0.0,0.0,95,0.00,,,0.00,VWS V14.01,2013-06-09 08:17:00,
2013-06-09 04:22:00,59.4,58.0,29.99,North,350,0.0,0.0,95,0.00,,,0.00,VWS V14.01,2013-06-09 08:22:00,
2013-06-09 04:27:00,59.3,57.9,29.99,North,350,0.0,0.0,95,0.00,,,0.00,VWS V14.01,2013-06-09 08:27:00,
2013-06-09 04:30:00,59.2,57.8,29.99,North,350,0.0,0.0,95,0.00,,,0.00,VWS V14.01,2013-06-09 08:30:00,
2013-06-09 04:32:00,59.2,57.8,29.99,North,350,0.0,0.0,95,0.00,,,0.00,VWS V14.01,2013-06-09 08:32:00,
2013-06-09 04:37:00,59.0,57.6,29.99,North,350,0.0,0.0,95,0.00,,,0.00,VWS V14.01,2013-06-09 08:37:00,
2013-06-09 04:42:00,58.9,57.8,29.99,North,350,0.0,0.0,96,0.00,,,0.00,VWS V14.01,2013-06-09 08:42:00,
2013-06-09 04:47:00,58.8,57.4,29.99,North,350,0.0,0.0,95,0.00,,,0.00,VWS V14.01,2013-06-09 08:47:00,
2013-06-09 04:52:00,58.7,57.6,29.99,North,350,0.0,0.0,96,0.00,,,0.00,VWS V14.01,2013-06-09 08:52:00,
2013-06-09 04:57:00,58.5,57.4,29.99,North,350,0.0,0.0,96,0.00,,,0.00,VWS V14.01,2013-06-09 08:57:00,
2013-06-09 05:00:00,58.5,57.4,30.00,North,350,0.0,0.0,96,0.00,,,0.00,VWS V14.01,2013-06-09 09:00:00,
2013-06-09 05:02:00,58.5,57.4,30.00,North,350,0.0,0.0,96,0.00,,,0.00,VWS V14.01,2013-06-09 09:02:00,
2013-06-09 05:07:00,58.5,57.4,29.99,North,350,0.0,0.0,96,0.00,,,0.00,VWS V14.01,2013-06-09 09:07:00,
2013-06-09 05:12:00,58.5,57.4,30.00,North,350,0.0,0.0,96,0.00,,,0.00,VWS V14.01,2013-06-09 09:12:00,
2013-06-09 05:17:00,58.4,57.3,30.00,North,350,0.0,0.0,96,0.00,,,0.00,VWS V14.01,2013-06-09 09:17:00,
2013-06-09 05:22:00,58.3,57.2,30.00,North,350,0.0,0.0,96,0.00,,,0.00,VWS V14.01,2013-06-09 09:22:00,
2013-06-09 05:27:00,58.2,57.1,30.00,North,350,0.0,0.0,96,0.00,,,0.00,VWS V14.01,2013-06-09 09:27:00,
2013-06-09 05:30:00,58.1,57.0,30.00,North,350,0.0,0.0,96,0.00,,,0.00,VWS V14.01,2013-06-09 09:30:00,
2013-06-09 05:32:00,58.2,57.1,30.00,North,350,0.0,0.0,96,0.00,,,0.00,VWS V14.01,2013-06-09 09:32:00,
2013-06-09 05:37:00,58.2,57.4,30.00,North,350,0.0,0.0,97,0.00,,,0.00,VWS V14.01,2013-06-09 09:37:00,
2013-06-09 05:42:00,58.2,57.4,30.00,North,350,0.0,0.0,97,0.00,,,0.00,VWS V14.01,2013-06-09 09:42:00,
2013-06-09 05:47:00,58.2,57.4,30.00,North,350,0.0,0.0,97,0.00,,,0.00,VWS V14.01,2013-06-09 09:47:00,
2013-06-09 05:52:00,58.1,57.3,30.01,North,350,0.0,0.0,97,0.00,,,0.00,VWS V14.01,2013-06-09 09:52:00,
2013-06-09 05:57:00,58.2,57.4,30.01,North,350,0.0,0.0,97,0.00,,,0.00,VWS V14.01,2013-06-09 09:57:00,
2013-06-09 06:00:00,58.3,57.5,30.01,North,350,0.0,0.0,97,0.00,,,0.00,VWS V14.01,2013-06-09 10:00:00,
2013-06-09 06:02:00,58.2,57.4,30.01,North,350,0.0,0.0,97,0.00,,,0.00,VWS V14.01,2013-06-09 10:02:00,
2013-06-09 06:07:00,58.3,57.5,30.01,North,350,0.0,0.0,97,0.00,,,0.00,VWS V14.01,2013-06-09 10:07:00,
2013-06-09 06:12:00,58.3,57.5,30.01,North,350,0.0,0.0,97,0.00,,,0.00,VWS V14.01,2013-06-09 10:12:00,
2013-06-09 06:17:00,58.4,57.6,30.01,North,350,0.0,0.0,97,0.00,,,0.00,VWS V14.01,2013-06-09 10:17:00,
2013-06-09 06:22:00,58.6,57.8,30.01,North,350,0.0,1.0,97,0.00,,,0.00,VWS V14.01,2013-06-09 10:22:00,
2013-06-09 06:27:00,58.8,58.0,30.01,North,350,0.0,1.0,97,0.00,,,0.00,VWS V14.01,2013-06-09 10:27:00,
2013-06-09 06:30:00,59.0,58.2,30.02,North,350,0.0,1.0,97,0.00,,,0.00,VWS V14.01,2013-06-09 10:30:00,
2013-06-09 06:32:00,59.0,58.2,30.02,North,350,0.0,1.0,97,0.00,,,0.00,VWS V14.01,2013-06-09 10:32:00,
2013-06-09 06:37:00,59.2,58.3,30.02,North,350,0.0,0.0,97,0.00,,,0.00,VWS V14.01,2013-06-09 10:37:00,
2013-06-09 06:42:00,59.6,59.0,30.02,North,350,0.0,1.0,98,0.00,,,0.00,VWS V14.01,2013-06-09 10:42:00,
2013-06-09 06:47:00,59.9,59.0,30.02,North,350,0.0,1.0,97,0.00,,,0.00,VWS V14.01,2013-06-09 10:47:00,
2013-06-09 06:52:00,60.4,59.5,30.03,North,350,1.0,2.0,97,0.00,,,0.00,VWS V14.01,2013-06-09 10:52:00,
2013-06-09 06:57:00,60.9,60.0,30.03,North,9,0.0,2.0,97,0.00,,,0.00,VWS V14.01,2013-06-09 10:57:00,
2013-06-09 07:00:00,61.4,60.5,30.03,SSW,199,0.0,2.0,97,0.00,,,0.00,VWS V14.01,2013-06-09 11:00:00,
2013-06-09 07:02:00,61.4,60.5,30.03,SSW,199,1.0,2.0,97,0.00,,,0.00,VWS V14.01,2013-06-09 11:02:00,
2013-06-09 07:07:00,61.8,60.7,30.04,SSW,199,0.0,1.0,96,0.00,,,0.00,VWS V14.01,2013-06-09 11:07:00,
2013-06-09 07:12:00,62.1,60.7,30.04,SSW,201,0.0,2.0,95,0.00,,,0.00,VWS V14.01,2013-06-09 11:12:00,
2013-06-09 07:17:00,62.3,60.6,30.04,SW,232,0.0,2.0,94,0.00,,,0.00,VWS V14.01,2013-06-09 11:17:00,
2013-06-09 07:22:00,62.6,60.8,30.04,SW,232,0.0,2.0,94,0.00,,,0.00,VWS V14.01,2013-06-09 11:22:00,
2013-06-09 07:27:00,62.8,60.8,30.04,WSW,238,0.0,4.0,93,0.00,,,0.00,VWS V14.01,2013-06-09 11:27:00,
2013-06-09 07:30:00,63.0,60.6,30.04,SW,234,1.0,4.0,92,0.00,,,0.00,VWS V14.01,2013-06-09 11:30:00,
2013-06-09 07:32:00,63.0,60.6,30.04,SW,234,2.0,4.0,92,0.00,,,0.00,VWS V14.01,2013-06-09 11:32:00,
2013-06-09 07:37:00,63.1,60.4,30.04,SW,234,1.0,2.0,91,0.00,,,0.00,VWS V14.01,2013-06-09 11:37:00,
2013-06-09 07:42:00,63.3,60.6,30.04,SW,236,0.0,2.0,91,0.00,,,0.00,VWS V14.01,2013-06-09 11:42:00,
2013-06-09 07:47:00,63.5,60.5,30.05,SW,236,0.0,2.0,90,0.00,,,0.00,VWS V14.01,2013-06-09 11:47:00,
2013-06-09 07:52:00,63.8,60.5,30.04,SW,236,0.0,2.0,89,0.00,,,0.00,VWS V14.01,2013-06-09 11:52:00,
2013-06-09 07:57:00,64.0,60.7,30.05,WNW,301,0.0,3.0,89,0.00,,,0.00,VWS V14.01,2013-06-09 11:57:00,
2013-06-09 08:00:00,64.5,61.2,30.04,WNW,301,0.0,3.0,89,0.00,,,0.00,VWS V14.01,2013-06-09 12:00:00,
2013-06-09 08:02:00,64.5,61.2,30.04,WNW,301,0.0,3.0,89,0.00,,,0.00,VWS V14.01,2013-06-09 12:02:00,
2013-06-09 08:07:00,65.0,60.7,30.04,NW,323,0.0,4.0,86,0.00,,,0.00,VWS V14.01,2013-06-09 12:07:00,
2013-06-09 08:12:00,65.7,61.1,30.04,NW,323,3.0,4.0,85,0.00,,,0.00,VWS V14.01,2013-06-09 12:12:00,
2013-06-09 08:17:00,66.3,61.3,30.04,NW,315,1.0,4.0,84,0.00,,,0.00,VWS V14.01,2013-06-09 12:17:00,
2013-06-09 08:22:00,66.9,60.5,30.04,NW,316,0.0,4.0,80,0.00,,,0.00,VWS V14.01,2013-06-09 12:22:00,
2013-06-09 08:27:00,67.2,60.8,30.04,West,272,0.0,5.0,80,0.00,,,0.00,VWS V14.01,2013-06-09 12:27:00,
2013-06-09 08:30:00,67.8,60.3,30.05,WNW,284,1.0,5.0,77,0.00,,,0.00,VWS V14.01,2013-06-09 12:30:00,
2013-06-09 08:32:00,67.8,60.3,30.05,WNW,284,2.0,5.0,77,0.00,,,0.00,VWS V14.01,2013-06-09 12:32:00,
2013-06-09 08:37:00,68.1,59.9,30.05,NW,310,0.0,4.0,75,0.00,,,0.00,VWS V14.01,2013-06-09 12:37:00,
2013-06-09 08:42:00,68.5,59.9,30.04,NW,323,3.0,6.0,74,0.00,,,0.00,VWS V14.01,2013-06-09 12:42:00,
2013-06-09 08:47:00,68.9,60.7,30.04,West,276,3.0,6.0,75,0.00,,,0.00,VWS V14.01,2013-06-09 12:47:00,
2013-06-09 08:52:00,69.5,60.1,30.04,NNW,344,0.0,6.0,72,0.00,,,0.00,VWS V14.01,2013-06-09 12:52:00,
2013-06-09 08:57:00,70.1,60.3,30.04,NNW,342,0.0,6.0,71,0.00,,,0.00,VWS V14.01,2013-06-09 12:57:00,
2013-06-09 09:00:00,70.5,59.8,30.04,WNW,293,4.0,6.0,69,0.00,,,0.00,VWS V14.01,2013-06-09 13:00:00,
2013-06-09 09:02:00,70.5,60.3,30.04,NNW,336,2.0,6.0,70,0.00,,,0.00,VWS V14.01,2013-06-09 13:02:00,
2013-06-09 09:07:00,70.9,60.2,30.04,WNW,289,2.0,4.0,69,0.00,,,0.00,VWS V14.01,2013-06-09 13:07:00,
2013-06-09 09:12:00,71.4,60.7,30.04,SSW,205,1.0,5.0,69,0.00,,,0.00,VWS V14.01,2013-06-09 13:12:00,
2013-06-09 09:17:00,71.9,59.9,30.04,NNW,337,6.0,6.0,66,0.00,,,0.00,VWS V14.01,2013-06-09 13:17:00,
2013-06-09 09:22:00,72.0,60.0,30.04,WNW,303,3.0,7.0,66,0.00,,,0.00,VWS V14.01,2013-06-09 13:22:00,
2013-06-09 09:27:00,72.1,60.1,30.04,WNW,293,2.0,7.0,66,0.00,,,0.00,VWS V14.01,2013-06-09 13:27:00,
2013-06-09 09:30:00,72.5,60.1,30.04,West,277,3.0,7.0,65,0.00,,,0.00,VWS V14.01,2013-06-09 13:30:00,
2013-06-09 09:32:00,72.5,60.1,30.04,West,278,3.0,7.0,65,0.00,,,0.00,VWS V14.01,2013-06-09 13:32:00,
2013-06-09 09:37:00,72.4,60.0,30.04,South,174,3.0,4.0,65,0.00,,,0.00,VWS V14.01,2013-06-09 13:37:00,
2013-06-09 09:42:00,72.6,59.7,30.04,WNW,296,1.0,5.0,64,0.00,,,0.00,VWS V14.01,2013-06-09 13:42:00,
2013-06-09 09:47:00,73.0,60.5,30.04,WNW,288,3.0,5.0,65,0.00,,,0.00,VWS V14.01,2013-06-09 13:47:00,
2013-06-09 09:52:00,73.5,60.6,30.04,WNW,300,0.0,5.0,64,0.00,,,0.00,VWS V14.01,2013-06-09 13:52:00,
2013-06-09 09:57:00,73.7,60.3,30.04,WNW,300,0.0,7.0,63,0.00,,,0.00,VWS V14.01,2013-06-09 13:57:00,
2013-06-09 10:00:00,74.2,59.4,30.04,NNW,346,1.0,7.0,60,0.00,,,0.00,VWS V14.01,2013-06-09 14:00:00,
2013-06-09 10:02:00,74.2,59.9,30.04,WNW,303,2.0,7.0,61,0.00,,,0.00,VWS V14.01,2013-06-09 14:02:00,
2013-06-09 10:07:00,74.6,58.4,30.04,WNW,297,1.0,4.0,57,0.00,,,0.00,VWS V14.01,2013-06-09 14:07:00,
2013-06-09 10:12:00,74.6,58.4,30.04,SSE,148,1.0,6.0,57,0.00,,,0.00,VWS V14.01,2013-06-09 14:12:00,
2013-06-09 10:17:00,74.7,58.5,30.05,NW,307,3.0,6.0,57,0.00,,,0.00,VWS V14.01,2013-06-09 14:17:00,
2013-06-09 10:22:00,74.8,59.0,30.05,WNW,292,3.0,6.0,58,0.00,,,0.00,VWS V14.01,2013-06-09 14:22:00,
2013-06-09 10:27:00,74.7,59.0,30.05,WNW,285,0.0,8.0,58,0.00,,,0.00,VWS V14.01,2013-06-09 14:27:00,
2013-06-09 10:30:00,74.8,58.6,30.05,NNW,342,0.0,8.0,57,0.00,,,0.00,VWS V14.01,2013-06-09 14:30:00,
2013-06-09 10:32:00,74.8,58.6,30.05,NNW,342,2.0,8.0,57,0.00,,,0.00,VWS V14.01,2013-06-09 14:32:00,
2013-06-09 10:37:00,75.0,57.8,30.05,NNW,333,2.0,7.0,55,0.00,,,0.00,VWS V14.01,2013-06-09 14:37:00,
2013-06-09 10:42:00,75.0,57.2,30.05,NNW,340,0.0,9.0,54,0.00,,,0.00,VWS V14.01,2013-06-09 14:42:00,
2013-06-09 10:47:00,75.2,56.9,30.05,NW,321,0.0,9.0,53,0.00,,,0.00,VWS V14.01,2013-06-09 14:47:00,
2013-06-09 10:52:00,75.1,57.3,30.05,West,259,3.0,10.0,54,0.00,,,0.00,VWS V14.01,2013-06-09 14:52:00,
2013-06-09 10:57:00,75.2,56.9,30.05,NW,319,3.0,11.0,53,0.00,,,0.00,VWS V14.01,2013-06-09 14:57:00,
2013-06-09 11:00:00,75.1,56.3,30.05,NW,304,3.0,11.0,52,0.00,,,0.00,VWS V14.01,2013-06-09 15:00:00,
2013-06-09 11:02:00,75.1,56.3,30.05,NW,317,2.0,11.0,52,0.00,,,0.00,VWS V14.01,2013-06-09 15:02:00,
2013-06-09 11:07:00,75.5,56.7,30.05,NW,324,7.0,9.0,52,0.00,,,0.00,VWS V14.01,2013-06-09 15:07:00,
2013-06-09 11:12:00,75.5,56.7,30.05,West,267,3.0,9.0,52,0.00,,,0.00,VWS V14.01,2013-06-09 15:12:00,
2013-06-09 11:17:00,75.7,57.9,30.05,WNW,288,3.0,9.0,54,0.00,,,0.00,VWS V14.01,2013-06-09 15:17:00,
2013-06-09 11:22:00,75.8,59.5,30.05,West,280,1.0,9.0,57,0.00,,,0.00,VWS V14.01,2013-06-09 15:22:00,
2013-06-09 11:27:00,76.4,57.5,30.05,SE,140,2.0,9.0,52,0.00,,,0.00,VWS V14.01,2013-06-09 15:27:00,
2013-06-09 11:30:00,76.2,57.3,30.05,NW,306,2.0,9.0,52,0.00,,,0.00,VWS V14.01,2013-06-09 15:30:00,
2013-06-09 11:32:00,76.2,57.3,30.05,NW,306,2.0,9.0,52,0.00,,,0.00,VWS V14.01,2013-06-09 15:32:00,
2013-06-09 11:37:00,76.4,57.5,30.04,NNW,331,6.0,6.0,52,0.00,,,0.00,VWS V14.01,2013-06-09 15:37:00,
2013-06-09 11:42:00,76.4,57.5,30.04,West,279,2.0,8.0,52,0.00,,,0.00,VWS V14.01,2013-06-09 15:42:00,
2013-06-09 11:47:00,76.5,57.0,30.04,NNE,24,3.0,8.0,51,0.00,,,0.00,VWS V14.01,2013-06-09 15:47:00,
2013-06-09 11:52:00,76.5,57.6,30.04,NW,309,4.0,8.0,52,0.00,,,0.00,VWS V14.01,2013-06-09 15:52:00,
2013-06-09 11:57:00,76.8,57.3,30.04,NNW,332,2.0,8.0,51,0.00,,,0.00,VWS V14.01,2013-06-09 15:57:00,
2013-06-09 12:00:00,77.3,58.8,30.05,North,11,0.0,8.0,53,0.00,,,0.00,VWS V14.01,2013-06-09 16:00:00,
2013-06-09 12:02:00,77.3,58.8,30.05,North,11,1.0,8.0,53,0.00,,,0.00,VWS V14.01,2013-06-09 16:02:00,
2013-06-09 12:07:00,77.6,59.1,30.04,WNW,300,1.0,5.0,53,0.00,,,0.00,VWS V14.01,2013-06-09 16:07:00,
2013-06-09 12:12:00,77.7,58.7,30.04,WNW,284,2.0,5.0,52,0.00,,,0.00,VWS V14.01,2013-06-09 16:12:00,
2013-06-09 12:17:00,78.3,58.7,30.04,NNW,333,2.0,5.0,51,0.00,,,0.00,VWS V14.01,2013-06-09 16:17:00,
2013-06-09 12:22:00,78.7,58.5,30.04,WNW,301,1.0,5.0,50,0.00,,,0.00,VWS V14.01,2013-06-09 16:22:00,
2013-06-09 12:27:00,79.1,59.4,30.04,NW,304,1.0,6.0,51,0.00,,,0.00,VWS V14.01,2013-06-09 16:27:00,
2013-06-09 12:30:00,78.8,57.5,30.04,NW,310,3.0,8.0,48,0.00,,,0.00,VWS V14.01,2013-06-09 16:30:00,
2013-06-09 12:32:00,78.9,58.1,30.04,East,84,1.0,8.0,49,0.00,,,0.00,VWS V14.01,2013-06-09 16:32:00,
2013-06-09 12:37:00,78.6,59.0,30.04,SW,215,1.0,6.0,51,0.00,,,0.00,VWS V14.01,2013-06-09 16:37:00,
2013-06-09 12:42:00,79.4,59.2,30.04,WNW,295,0.0,6.0,50,0.00,,,0.00,VWS V14.01,2013-06-09 16:42:00,
2013-06-09 12:47:00,79.4,59.2,30.03,WNW,290,0.0,6.0,50,0.00,,,0.00,VWS V14.01,2013-06-09 16:47:00,
2013-06-09 12:52:00,79.6,58.2,30.03,SW,232,1.0,6.0,48,0.00,,,0.00,VWS V14.01,2013-06-09 16:52:00,
2013-06-09 12:57:00,79.5,58.1,30.03,NNW,333,3.0,7.0,48,0.00,,,0.00,VWS V14.01,2013-06-09 16:57:00,
2013-06-09 13:00:00,78.9,55.8,30.03,South,189,3.0,7.0,45,0.00,,,0.00,VWS V14.01,2013-06-09 17:00:00,
2013-06-09 13:02:00,79.0,57.1,30.03,SSW,211,4.0,7.0,47,0.00,,,0.00,VWS V14.01,2013-06-09 17:02:00,
2013-06-09 13:07:00,78.8,58.0,30.03,NW,308,1.0,4.0,49,0.00,,,0.00,VWS V14.01,2013-06-09 17:07:00,
2013-06-09 13:12:00,79.8,59.0,30.03,NW,314,1.0,4.0,49,0.00,,,0.00,VWS V14.01,2013-06-09 17:12:00,
2013-06-09 13:17:00,80.4,59.5,30.03,SW,225,0.0,4.0,49,0.00,,,0.00,VWS V14.01,2013-06-09 17:17:00,
2013-06-09 13:22:00,79.7,61.1,30.03,ESE,115,3.0,5.0,53,0.00,,,0.00,VWS V14.01,2013-06-09 17:22:00,
2013-06-09 13:27:00,78.4,60.4,30.03,SE,137,4.0,5.0,54,0.00,,,0.00,VWS V14.01,2013-06-09 17:27:00,
2013-06-09 13:30:00,76.9,61.0,30.03,ESE,115,3.0,7.0,58,0.00,,,0.00,VWS V14.01,2013-06-09 17:30:00,
2013-06-09 13:32:00,76.9,61.5,30.03,South,175,6.0,7.0,59,0.00,,,0.00,VWS V14.01,2013-06-09 17:32:00,
2013-06-09 13:37:00,76.2,61.8,30.03,South,171,5.0,7.0,61,0.00,,,0.00,VWS V14.01,2013-06-09 17:37:00,
2013-06-09 13:42:00,75.6,61.2,30.03,SE,146,5.0,10.0,61,0.00,,,0.00,VWS V14.01,2013-06-09 17:42:00,
2013-06-09 13:47:00,75.6,61.7,30.03,SE,142,1.0,10.0,62,0.00,,,0.00,VWS V14.01,2013-06-09 17:47:00,
2013-06-09 13:52:00,75.2,61.3,30.03,WSW,245,4.0,10.0,62,0.00,,,0.00,VWS V14.01,2013-06-09 17:52:00,
2013-06-09 13:57:00,74.9,61.0,30.02,SSE,166,7.0,10.0,62,0.00,,,0.00,VWS V14.01,2013-06-09 17:57:00,
2013-06-09 14:00:00,74.8,61.4,30.02,SSE,163,4.0,11.0,63,0.00,,,0.00,VWS V14.01,2013-06-09 18:00:00,
2013-06-09 14:02:00,74.8,61.4,30.02,South,184,4.0,11.0,63,0.00,,,0.00,VWS V14.01,2013-06-09 18:02:00,
2013-06-09 14:07:00,74.6,60.7,30.02,SSW,213,6.0,10.0,62,0.00,,,0.00,VWS V14.01,2013-06-09 18:07:00,
2013-06-09 14:12:00,73.8,60.9,30.02,SSE,160,1.0,13.0,64,0.00,,,0.00,VWS V14.01,2013-06-09 18:12:00,
2013-06-09 14:17:00,74.2,61.7,30.02,SE,146,3.0,13.0,65,0.00,,,0.00,VWS V14.01,2013-06-09 18:17:00,
2013-06-09 14:22:00,74.3,60.9,30.02,SSW,200,6.0,13.0,63,0.00,,,0.00,VWS V14.01,2013-06-09 18:22:00,
2013-06-09 14:27:00,73.2,61.2,30.02,SW,229,2.0,13.0,66,0.00,,,0.00,VWS V14.01,2013-06-09 18:27:00,
2013-06-09 14:30:00,73.1,60.7,30.02,SE,145,3.0,13.0,65,0.00,,,0.00,VWS V14.01,2013-06-09 18:30:00,
2013-06-09 14:32:00,73.1,60.7,30.02,SSW,206,5.0,13.0,65,0.00,,,0.00,VWS V14.01,2013-06-09 18:32:00,
2013-06-09 14:37:00,72.9,61.3,30.03,NW,310,1.0,8.0,67,0.00,,,0.00,VWS V14.01,2013-06-09 18:37:00,
2013-06-09 14:42:00,72.8,60.8,30.02,SSW,196,3.0,10.0,66,0.00,,,0.00,VWS V14.01,2013-06-09 18:42:00,
2013-06-09 14:47:00,73.1,61.1,30.02,ESE,114,2.0,10.0,66,0.00,,,0.00,VWS V14.01,2013-06-09 18:47:00,
2013-06-09 14:52:00,72.9,60.9,30.02,SSE,147,3.0,10.0,66,0.00,,,0.00,VWS V14.01,2013-06-09 18:52:00,
2013-06-09 14:57:00,72.4,61.2,30.02,SSW,213,3.0,10.0,68,0.00,,,0.00,VWS V14.01,2013-06-09 18:57:00,
2013-06-09 15:00:00,72.2,61.1,30.02,SSE,160,5.0,12.0,68,0.00,,,0.00,VWS V14.01,2013-06-09 19:00:00,
2013-06-09 15:02:00,72.2,61.1,30.02,SE,125,4.0,12.0,68,0.00,,,0.00,VWS V14.01,2013-06-09 19:02:00,
2013-06-09 15:07:00,71.8,61.5,30.02,SSE,148,5.0,11.0,70,0.00,,,0.00,VWS V14.01,2013-06-09 19:07:00,
2013-06-09 15:12:00,71.9,61.2,30.02,SW,223,3.0,12.0,69,0.00,,,0.00,VWS V14.01,2013-06-09 19:12:00,
2013-06-09 15:17:00,72.2,61.1,30.02,South,178,4.0,12.0,68,0.00,,,0.00,VWS V14.01,2013-06-09 19:17:00,
2013-06-09 15:22:00,72.2,61.5,30.02,SSW,202,2.0,12.0,69,0.00,,,0.00,VWS V14.01,2013-06-09 19:22:00,
2013-06-09 15:27:00,72.1,61.8,30.02,SE,146,2.0,12.0,70,0.00,,,0.00,VWS V14.01,2013-06-09 19:27:00,
2013-06-09 15:30:00,72.4,61.7,30.02,SSE,148,2.0,12.0,69,0.00,,,0.00,VWS V14.01,2013-06-09 19:30:00,
2013-06-09 15:32:00,72.4,61.7,30.02,SE,134,1.0,2.0,69,0.00,,,0.00,VWS V14.01,2013-06-09 19:32:00,
2013-06-09 15:37:00,73.0,61.8,30.02,SSW,211,2.0,8.0,68,0.00,,,0.00,VWS V14.01,2013-06-09 19:37:00,
2013-06-09 15:42:00,73.0,61.8,30.02,SW,221,7.0,9.0,68,0.00,,,0.00,VWS V14.01,2013-06-09 19:42:00,
2013-06-09 15:47:00,72.5,62.2,30.02,South,181,2.0,9.0,70,0.00,,,0.00,VWS V14.01,2013-06-09 19:47:00,
2013-06-09 15:52:00,72.8,62.0,30.02,West,279,8.0,10.0,69,0.00,,,0.00,VWS V14.01,2013-06-09 19:52:00,
2013-06-09 15:57:00,73.0,62.2,30.02,SW,232,3.0,10.0,69,0.00,,,0.00,VWS V14.01,2013-06-09 19:57:00,
2013-06-09 16:00:00,72.8,62.5,30.02,SW,227,3.0,10.0,70,0.00,,,0.00,VWS V14.01,2013-06-09 20:00:00,
2013-06-09 16:02:00,72.9,62.5,30.02,NNW,333,2.0,5.0,70,0.00,,,0.00,VWS V14.01,2013-06-09 20:02:00,
2013-06-09 16:07:00,73.0,63.0,30.02,SSW,207,3.0,8.0,71,0.01,,,0.01,VWS V14.01,2013-06-09 20:07:00,
2013-06-09 16:12:00,73.1,63.2,30.02,West,273,2.0,10.0,71,0.01,,,0.01,VWS V14.01,2013-06-09 20:12:00,
2013-06-09 16:17:00,73.0,63.0,30.02,South,186,6.0,10.0,71,0.01,,,0.01,VWS V14.01,2013-06-09 20:17:00,
2013-06-09 16:22:00,72.8,62.9,30.02,West,268,2.0,10.0,71,0.01,,,0.01,VWS V14.01,2013-06-09 20:22:00,
2013-06-09 16:27:00,72.2,62.7,30.02,SSW,194,1.0,10.0,72,0.01,,,0.01,VWS V14.01,2013-06-09 20:27:00,
2013-06-09 16:30:00,71.3,62.2,30.02,South,170,5.0,12.0,73,0.01,,,0.01,VWS V14.01,2013-06-09 20:30:00,
2013-06-09 16:32:00,71.3,62.2,30.02,South,189,2.0,5.0,73,0.01,,,0.01,VWS V14.01,2013-06-09 20:32:00,
2013-06-09 16:37:00,70.8,62.5,30.02,SSW,213,6.0,14.0,75,0.01,,,0.01,VWS V14.01,2013-06-09 20:37:00,
2013-06-09 16:42:00,71.3,62.6,30.02,SW,227,3.0,14.0,74,0.01,,,0.01,VWS V14.01,2013-06-09 20:42:00,
2013-06-09 16:47:00,71.5,62.8,30.02,SE,132,5.0,14.0,74,0.01,,,0.01,VWS V14.01,2013-06-09 20:47:00,
2013-06-09 16:52:00,71.6,62.9,30.02,SW,224,5.0,14.0,74,0.01,,,0.01,VWS V14.01,2013-06-09 20:52:00,
2013-06-09 16:57:00,71.5,62.8,30.02,SW,219,2.0,14.0,74,0.01,,,0.01,VWS V14.01,2013-06-09 20:57:00,
2013-06-09 17:00:00,71.5,62.8,30.02,SSE,163,2.0,14.0,74,0.01,,,0.01,VWS V14.01,2013-06-09 21:00:00,
2013-06-09 17:02:00,71.5,62.8,30.02,SSE,162,1.0,2.0,74,0.01,,,0.01,VWS V14.01,2013-06-09 21:02:00,
2013-06-09 17:07:00,70.9,62.6,30.02,West,265,2.0,9.0,75,0.01,,,0.01,VWS V14.01,2013-06-09 21:07:00,
2013-06-09 17:12:00,70.4,62.8,30.02,ESE,121,3.0,10.0,77,0.01,,,0.01,VWS V14.01,2013-06-09 21:12:00,
2013-06-09 17:17:00,70.2,62.7,30.01,SSW,209,5.0,10.0,77,0.01,,,0.01,VWS V14.01,2013-06-09 21:17:00,
2013-06-09 17:22:00,70.3,63.1,30.01,SW,219,3.0,10.0,78,0.01,,,0.01,VWS V14.01,2013-06-09 21:22:00,
2013-06-09 17:27:00,70.6,63.0,30.01,SE,140,1.0,10.0,77,0.01,,,0.01,VWS V14.01,2013-06-09 21:27:00,
2013-06-09 17:30:00,70.9,63.3,30.01,SE,141,1.0,10.0,77,0.01,,,0.01,VWS V14.01,2013-06-09 21:30:00,
2013-06-09 17:32:00,70.9,63.3,30.02,SSE,155,1.0,1.0,77,0.00,,,0.01,VWS V14.01,2013-06-09 21:32:00,
2013-06-09 17:37:00,71.3,63.0,30.01,SSE,168,5.0,7.0,75,0.00,,,0.01,VWS V14.01,2013-06-09 21:37:00,
2013-06-09 17:42:00,71.6,63.3,30.01,SSW,211,1.0,7.0,75,0.00,,,0.01,VWS V14.01,2013-06-09 21:42:00,
2013-06-09 17:47:00,72.1,63.0,30.02,SSE,168,1.0,7.0,73,0.00,,,0.01,VWS V14.01,2013-06-09 21:47:00,
2013-06-09 17:52:00,72.5,63.0,30.02,SSW,211,1.0,7.0,72,0.00,,,0.01,VWS V14.01,2013-06-09 21:52:00,
2013-06-09 17:57:00,72.6,62.7,30.02,WSW,252,2.0,9.0,71,0.00,,,0.01,VWS V14.01,2013-06-09 21:57:00,
2013-06-09 18:00:00,72.6,62.7,30.02,SE,140,1.0,9.0,71,0.00,,,0.01,VWS V14.01,2013-06-09 22:00:00,
2013-06-09 18:02:00,72.6,62.7,30.02,SE,140,0.0,1.0,71,0.00,,,0.01,VWS V14.01,2013-06-09 22:02:00,
2013-06-09 18:07:00,72.5,62.6,30.02,WNW,298,5.0,5.0,71,0.00,,,0.01,VWS V14.01,2013-06-09 22:07:00,
2013-06-09 18:12:00,72.3,62.8,30.02,SW,219,2.0,5.0,72,0.00,,,0.01,VWS V14.01,2013-06-09 22:12:00,
2013-06-09 18:17:00,72.1,63.0,30.02,WSW,237,2.0,9.0,73,0.00,,,0.01,VWS V14.01,2013-06-09 22:17:00,
2013-06-09 18:22:00,72.0,62.9,30.02,South,178,1.0,9.0,73,0.00,,,0.01,VWS V14.01,2013-06-09 22:22:00,
2013-06-09 18:27:00,71.8,63.1,30.02,ESE,109,1.0,9.0,74,0.00,,,0.01,VWS V14.01,2013-06-09 22:27:00,
2013-06-09 18:30:00,71.7,63.4,30.02,SW,214,0.0,9.0,75,0.00,,,0.01,VWS V14.01,2013-06-09 22:30:00,
2013-06-09 18:32:00,71.7,63.4,30.02,SW,226,1.0,1.0,75,0.00,,,0.01,VWS V14.01,2013-06-09 22:32:00,
2013-06-09 18:37:00,71.5,63.2,30.02,South,187,1.0,5.0,75,0.00,,,0.01,VWS V14.01,2013-06-09 22:37:00,
2013-06-09 18:42:00,71.2,62.5,30.02,SE,127,1.0,6.0,74,0.00,,,0.01,VWS V14.01,2013-06-09 22:42:00,
2013-06-09 18:47:00,71.2,62.5,30.03,WSW,252,0.0,6.0,74,0.00,,,0.01,VWS V14.01,2013-06-09 22:47:00,
2013-06-09 18:52:00,71.2,62.9,30.03,South,191,1.0,6.0,75,0.00,,,0.01,VWS V14.01,2013-06-09 22:52:00,
2013-06-09 18:57:00,71.1,62.8,30.03,SSW,206,0.0,6.0,75,0.00,,,0.01,VWS V14.01,2013-06-09 22:57:00,
2013-06-09 19:00:00,70.9,63.0,30.03,SSW,210,2.0,6.0,76,0.00,,,0.01,VWS V14.01,2013-06-09 23:00:00,
2013-06-09 19:02:00,70.9,63.0,30.03,SSW,210,1.0,2.0,76,0.00,,,0.01,VWS V14.01,2013-06-09 23:02:00,
2013-06-09 19:07:00,70.6,62.7,30.03,SSE,157,0.0,3.0,76,0.00,,,0.01,VWS V14.01,2013-06-09 23:07:00,
2013-06-09 19:12:00,70.4,62.8,30.03,SSE,158,3.0,5.0,77,0.00,,,0.01,VWS V14.01,2013-06-09 23:12:00,
2013-06-09 19:17:00,70.0,62.5,30.03,WSW,239,0.0,5.0,77,0.00,,,0.01,VWS V14.01,2013-06-09 23:17:00,
2013-06-09 19:22:00,69.8,62.6,30.03,SE,138,0.0,5.0,78,0.00,,,0.01,VWS V14.01,2013-06-09 23:22:00,
2013-06-09 19:27:00,69.5,62.7,30.04,SW,227,3.0,5.0,79,0.00,,,0.01,VWS V14.01,2013-06-09 23:27:00,
2013-06-09 19:30:00,69.2,62.8,30.04,SW,222,0.0,5.0,80,0.00,,,0.01,VWS V14.01,2013-06-09 23:30:00,
2013-06-09 19:32:00,69.2,62.8,30.04,SW,222,0.0,0.0,80,0.00,,,0.01,VWS V14.01,2013-06-09 23:32:00,
2013-06-09 19:37:00,69.0,62.2,30.04,SSE,166,0.0,3.0,79,0.00,,,0.01,VWS V14.01,2013-06-09 23:37:00,
2013-06-09 19:42:00,68.9,62.5,30.04,SSW,202,2.0,3.0,80,0.00,,,0.01,VWS V14.01,2013-06-09 23:42:00,
2013-06-09 19:47:00,68.8,62.4,30.05,South,187,0.0,3.0,80,0.00,,,0.01,VWS V14.01,2013-06-09 23:47:00,
2013-06-09 19:52:00,68.6,62.5,30.04,SE,134,1.0,3.0,81,0.00,,,0.01,VWS V14.01,2013-06-09 23:52:00,
2013-06-09 19:57:00,68.5,62.5,30.05,SSW,206,0.0,3.0,81,0.00,,,0.01,VWS V14.01,2013-06-09 23:57:00,
2013-06-09 20:00:00,68.4,62.3,30.04,SSW,205,1.0,3.0,81,0.00,,,0.01,VWS V14.01,2013-06-10 00:00:00,
2013-06-09 20:02:00,68.4,62.3,30.05,SSW,205,0.0,1.0,81,0.00,,,0.01,VWS V14.01,2013-06-10 00:02:00,
2013-06-09 20:07:00,68.3,62.2,30.05,WSW,238,0.0,2.0,81,0.00,,,0.01,VWS V14.01,2013-06-10 00:07:00,
2013-06-09 20:12:00,68.1,62.1,30.05,SSW,196,0.0,2.0,81,0.00,,,0.01,VWS V14.01,2013-06-10 00:12:00,
2013-06-09 20:17:00,68.0,62.0,30.05,SSW,198,0.0,2.0,81,0.00,,,0.01,VWS V14.01,2013-06-10 00:17:00,
2013-06-09 20:22:00,67.9,61.9,30.05,South,181,0.0,3.0,81,0.00,,,0.01,VWS V14.01,2013-06-10 00:22:00,
2013-06-09 20:27:00,67.8,61.8,30.05,SSW,192,0.0,3.0,81,0.00,,,0.01,VWS V14.01,2013-06-10 00:27:00,
2013-06-09 20:30:00,67.7,61.7,30.05,South,189,0.0,3.0,81,0.00,,,0.01,VWS V14.01,2013-06-10 00:30:00,
2013-06-09 20:32:00,67.7,61.7,30.05,South,190,1.0,1.0,81,0.00,,,0.01,VWS V14.01,2013-06-10 00:32:00,
2013-06-09 20:37:00,67.6,61.6,30.05,South,190,0.0,1.0,81,0.00,,,0.01,VWS V14.01,2013-06-10 00:37:00,
2013-06-09 20:42:00,67.5,61.8,30.05,South,190,0.0,1.0,82,0.00,,,0.01,VWS V14.01,2013-06-10 00:42:00,
2013-06-09 20:47:00,67.4,61.7,30.05,South,190,0.0,1.0,82,0.00,,,0.01,VWS V14.01,2013-06-10 00:47:00,
2013-06-09 20:52:00,67.2,61.5,30.05,SSW,212,0.0,3.0,82,0.00,,,0.01,VWS V14.01,2013-06-10 00:52:00,
2013-06-09 20:57:00,67.0,61.3,30.06,SSW,206,0.0,3.0,82,0.00,,,0.01,VWS V14.01,2013-06-10 00:57:00,
2013-06-09 21:00:00,66.9,61.2,30.06,SSW,206,0.0,3.0,82,0.00,,,0.01,VWS V14.01,2013-06-10 01:00:00,
2013-06-09 21:02:00,66.9,61.2,30.06,SSW,206,0.0,0.0,82,0.00,,,0.01,VWS V14.01,2013-06-10 01:02:00,
2013-06-09 21:07:00,66.7,61.4,30.06,SSW,206,0.0,0.0,83,0.00,,,0.01,VWS V14.01,2013-06-10 01:07:00,
2013-06-09 21:12:00,66.3,61.3,30.06,SSW,206,0.0,0.0,84,0.00,,,0.01,VWS V14.01,2013-06-10 01:12:00,
2013-06-09 21:17:00,65.9,60.9,30.06,SSW,206,0.0,0.0,84,0.00,,,0.01,VWS V14.01,2013-06-10 01:17:00,
2013-06-09 21:22:00,65.7,61.1,30.06,SSW,206,0.0,0.0,85,0.00,,,0.01,VWS V14.01,2013-06-10 01:22:00,
2013-06-09 21:27:00,65.4,60.8,30.06,SSW,206,0.0,0.0,85,0.00,,,0.01,VWS V14.01,2013-06-10 01:27:00,
2013-06-09 21:30:00,65.3,61.0,30.07,SSW,206,0.0,0.0,86,0.00,,,0.01,VWS V14.01,2013-06-10 01:30:00,
2013-06-09 21:32:00,65.2,60.9,30.07,SSW,206,0.0,0.0,86,0.00,,,0.01,VWS V14.01,2013-06-10 01:32:00,
2013-06-09 21:37:00,65.0,61.0,30.07,SSW,206,0.0,0.0,87,0.00,,,0.01,VWS V14.01,2013-06-10 01:37:00,
2013-06-09 21:42:00,64.9,61.3,30.07,SSW,206,0.0,1.0,88,0.00,,,0.01,VWS V14.01,2013-06-10 01:42:00,
2013-06-09 21:47:00,64.8,61.2,30.07,SSW,206,0.0,1.0,88,0.00,,,0.01,VWS V14.01,2013-06-10 01:47:00,
2013-06-09 21:52:00,64.7,61.4,30.07,SSW,206,0.0,1.0,89,0.00,,,0.01,VWS V14.01,2013-06-10 01:52:00,
2013-06-09 21:57:00,64.6,61.3,30.07,SSW,206,0.0,1.0,89,0.00,,,0.01,VWS V14.01,2013-06-10 01:57:00,
2013-06-09 22:00:00,64.5,61.2,30.08,SSW,206,0.0,1.0,89,0.00,,,0.01,VWS V14.01,2013-06-10 02:00:00,
2013-06-09 22:02:00,64.5,61.2,30.08,SSW,206,0.0,0.0,89,0.00,,,0.01,VWS V14.01,2013-06-10 02:02:00,
2013-06-09 22:07:00,64.5,61.2,30.08,SSW,206,0.0,0.0,89,0.00,,,0.01,VWS V14.01,2013-06-10 02:07:00,
2013-06-09 22:12:00,64.5,61.2,30.08,SSW,206,0.0,0.0,89,0.00,,,0.01,VWS V14.01,2013-06-10 02:12:00,
2013-06-09 22:17:00,64.4,61.1,30.08,SSW,206,0.0,0.0,89,0.00,,,0.01,VWS V14.01,2013-06-10 02:17:00,
2013-06-09 22:22:00,64.3,61.0,30.09,SSW,206,0.0,0.0,89,0.00,,,0.01,VWS V14.01,2013-06-10 02:22:00,
2013-06-09 22:27:00,64.1,60.8,30.08,SSW,206,0.0,0.0,89,0.00,,,0.01,VWS V14.01,2013-06-10 02:27:00,
2013-06-09 22:30:00,64.0,60.7,30.08,SSW,206,0.0,0.0,89,0.00,,,0.01,VWS V14.01,2013-06-10 02:30:00,
2013-06-09 22:32:00,64.0,60.7,30.08,SSW,206,0.0,0.0,89,0.00,,,0.01,VWS V14.01,2013-06-10 02:32:00,
2013-06-09 22:37:00,63.8,60.5,30.08,SSW,206,0.0,0.0,89,0.00,,,0.01,VWS V14.01,2013-06-10 02:37:00,
2013-06-09 22:42:00,63.8,60.2,30.08,SSW,206,0.0,0.0,88,0.00,,,0.01,VWS V14.01,2013-06-10 02:42:00,
2013-06-09 22:47:00,63.8,60.2,30.09,WSW,248,0.0,2.0,88,0.00,,,0.01,VWS V14.01,2013-06-10 02:47:00,
2013-06-09 22:52:00,63.8,59.9,30.09,WSW,248,0.0,2.0,87,0.00,,,0.01,VWS V14.01,2013-06-10 02:52:00,
2013-06-09 22:57:00,63.8,60.2,30.09,WSW,246,0.0,2.0,88,0.00,,,0.01,VWS V14.01,2013-06-10 02:57:00,
2013-06-09 23:00:00,63.7,59.8,30.09,WSW,246,0.0,2.0,87,0.00,,,0.01,VWS V14.01,2013-06-10 03:00:00,
2013-06-09 23:02:00,63.7,59.8,30.09,WSW,246,0.0,0.0,87,0.00,,,0.01,VWS V14.01,2013-06-10 03:02:00,
2013-06-09 23:07:00,63.8,59.9,30.09,WSW,246,0.0,1.0,87,0.00,,,0.01,VWS V14.01,2013-06-10 03:07:00,
2013-06-09 23:12:00,63.8,59.9,30.09,WSW,246,0.0,1.0,87,0.00,,,0.01,VWS V14.01,2013-06-10 03:12:00,
2013-06-09 23:17:00,63.9,60.0,30.09,WSW,246,0.0,1.0,87,0.00,,,0.01,VWS V14.01,2013-06-10 03:17:00,
2013-06-09 23:22:00,64.0,59.7,30.09,NW,316,1.0,1.0,86,0.00,,,0.01,VWS V14.01,2013-06-10 03:22:00,
2013-06-09 23:27:00,64.1,59.8,30.09,NW,316,0.0,3.0,86,0.00,,,0.01,VWS V14.01,2013-06-10 03:27:00,
2013-06-09 23:30:00,64.2,59.9,30.09,NW,316,0.0,3.0,86,0.00,,,0.01,VWS V14.01,2013-06-10 03:30:00,
2013-06-09 23:32:00,64.2,59.9,30.09,NW,316,0.0,0.0,86,0.00,,,0.01,VWS V14.01,2013-06-10 03:32:00,
2013-06-09 23:37:00,64.3,60.0,30.10,WNW,300,0.0,4.0,86,0.00,,,0.01,VWS V14.01,2013-06-10 03:37:00,
2013-06-09 23:42:00,64.2,59.9,30.09,WNW,300,0.0,4.0,86,0.00,,,0.01,VWS V14.01,2013-06-10 03:42:00,
2013-06-09 23:47:00,64.0,59.7,30.10,WNW,300,0.0,4.0,86,0.00,,,0.01,VWS V14.01,2013-06-10 03:47:00,
2013-06-09 23:52:00,64.0,59.7,30.10,NNE,12,0.0,4.0,86,0.00,,,0.01,VWS V14.01,2013-06-10 03:52:00,
2013-06-09 23:57:00,64.0,59.7,30.10,NNE,12,0.0,4.0,86,0.00,,,0.01,VWS V14.01,2013-06-10 03:57:00,